Other Surface Observations
Issued by NWS Charleston, SC

Home | Current Version | Previous Version | Text Only | Print | Product List | Glossary On
Versions: 1 2 3 4 5 6 7 8 9 10 11 12 13 14 15 16 17 18 19 20 21 22 23 24 25 26 27 28 29 30 31 32 33 34 35 36 37 38 39 40 41 42 43 44 45 46 47 48 49 50
000
SXUS52 KCHS 201025
OSOCHS

MARINE OBSERVATIONS
NATIONAL WEATHER SERVICE CHARLESTON SC
600 AM EDT MON OCT 20 2014

...DOWNTOWN CHARLESTON AND HARBOR...

CITY           SKY/WX    TMP DP  RH WIND       PRES   REMARKS
WATERFRONT PRK   N/A     63 N/A N/A N9          N/A
FORT JOHNSON   NOT AVBL

...LAKE MOULTRIE...

CITY           SKY/WX    TMP DP  RH WIND       PRES   REMARKS
PINOPOLIS        N/A     59  52  77 SE3       30.03F

...LAKE AND SUPPLEMENTAL COASTAL OBSERVATIONS...

STATION/POSITION TIME  TEMP    WIND        PRES    WAVE   SWELL
                       AIR SEA DIR/SP/G            HT/PER HT/PER/DIR
                 (UTC) (F)     (DEG/KT/KT) (MB)    (FT/S) (FT/S/D)
FORT PULASKI     1000   64     360/  5/  6 1019.1S
SAPELO ISLAND    NOT AVBL
UPR LAKE MARION  NOT AVBL
WINYAH BAY       1000   51     320/  4     1020.0S
LAKE MURRAY      1000   55     120/  4/  6 1019.6R
ACE BASIN NERRS  1000   53        CALM     1019.0S


...C-MAN AND BUOY OBSERVATIONS...

STATION/POSITION TIME  TEMP    WIND        PRES    WAVE   SWELL
                       AIR SEA DIR/SP/G            HT/PER HT/PER/DIR
                 (UTC) (F)     (DEG/KT/KT) (MB)    (FT/S) (FT/S/D)
BUOY 41004       1000   70 79  120/  4/  8 1019.0S   2/10   2/10
BUOY 41008       1000   71 76   90/  8/ 10 1018.3R   3/ 6   2/ 60/ 6
FOLLY BEACH CMAN 1000   65      20/  7/  9 1020.2R
CAPERS NS BUOY   0900   66      60/ 10/ 12   N/A
FRIPP NS BUOY    NOT AVBL
5E ST. MARYS GA  1000      77                N/A     3/ 6   2/ 90/13
FRYING PAN BUOY  1000   67 75   90/  4/  8 1020.7S   2/10   2/ 90/10
BUOY 41025       1000   62      10/  4/  8 1020.7R   4/12   3/ 60/12
CAPE LOOKOUT NC  1000   59     320/  3/  5 1020.8R
BUOY 41002       0926   70 80   80/  8/ 12 1019.7R   5/ 8   5/ 10/ 8
BUOY 41010       1000   77 80   50/ 14/ 16 1016.6S   4/ 7   3/ 10/ 7
BUOY 41012       NOT AVBL
ST AUGUSTINE FL  1000   75      70/ 11/ 12 1017.8R


$$



USA.gov is the U.S. government's official web portal to all federal, state and local government web resources and services.